Temperature
17 17 18 18 17 17 17 18 18 18 18 18 18 18 18 18 18 18 18 18 18 17 17 18 18 18 18 18 18 18 18 18 18 18 18 18 18 17 18 18 17 17 18
17 17 18 18 17 17 17 17 17 18 18 18 18 18 18 18 18 18 17 17 17 17 17 17 17 17 18 17 17 17 18 18 18 18 18 17 17 17 17 17 17 17 17
17 17 17 17 17 17 17 17 17 17 17 17 17 17 17 17 17 17 17 17 17 17 17 17 17 17 17 17 17 17 17 17 17 17 17 17 17 17 17 17 17 17 17
17 17 17 17 17 17 17 17 17 17 17 17 17 17 17 17 17 17 17 17 17 17 17 17 17 17 17 17 17 17 17 17 17 17 17 17 17 17 17 17 17 17 17
17 17 17 17 17 17 17 17 17 17 17 17 17 17 17 17 17 17 17 17 17 17 17 17 17 17 17 17 17 17 17 17 17 17 16 17 17 17 17 17 17 17 17
17 17 16 17 17 17 17 17 17 17 17 17 17 17 17 17 17 17 17 17 17 17 17 17 17 17 17 17 17 17 17 17 16 16 16 16 17 17 17 17 17 17 17
17 17 16 17 17 17 16 16 16 17 17 17 17 17 17 17 17 17 17 17 17 17 17 17 17 17 17 17 17 17 17 17 16 16 16 16 17 17 17 17 17 17 17
17 17 16 17 17 16 16 16 16 16 16 16 16 16 17 17 16 16 16 16 17 17 16 16 16 16 16 16 17 17 17 16 16 16 16 16 17 17 17 16 16 16 16
17 17 16 16 16 16 16 16 16 16 16 16 16 16 16 16 16 16 16 16 16 16 16 16 16 16 16 16 16 16 16 16 16 16 16 16 16 17 17 16 16 16 16
17 17 17 16 16 16 16 16 16 16 16 16 16 16 16 16 16 16 16 16 16 16 16 16 16 16 16 16 16 16 16 16 15 15 15 16 16 16 16 16 16 16 16
17 17 17 17 16 16 16 16 16 16 16 16 16 16 16 16 16 16 16 16 16 16 16 16 16 16 16 16 16 16 16 15 15 15 15 16 16 16 16 16 16 16 16
18 17 17 17 16 16 16 16 16 16 16 16 16 16 16 16 16 15 16 16 16 16 16 16 16 16 15 15 15 15 15 15 15 15 15 15 16 16 16 16 16 16 16
18 17 17 17 17 16 16 16 16 16 16 16 16 16 16 15 15 15 15 15 15 15 15 15 15 15 15 15 15 15 15 15 15 15 15 15 15 15 16 16 16 15 15
18 17 17 17 17 16 16 16 16 16 16 16 16 16 15 15 15 15 15 15 15 15 15 15 15 15 15 15 15 15 15 15 15 15 15 15 15 15 15 15 15 15 15
18 17 17 17 17 17 16 16 16 16 16 16 15 15 15 15 15 15 15 15 15 15 15 15 15 15 15 15 15 15 15 14 14 15 15 15 15 15 15 15 15 15 15
18 18 17 17 17 17 16 16 16 16 16 16 15 15 15 15 15 15 15 15 15 15 15 15 15 15 15 15 15 14 14 14 14 14 14 15 15 15 15 15 15 15 15
18 18 17 17 17 17 16 16 16 16 16 16 15 15 15 15 15 15 15 15 15 15 15 15 15 15 15 14 14 14 14 14 14 14 14 14 14 14 15 14 14 14 14
18 18 17 17 17 16 16 16 16 16 16 16 15 15 15 15 15 15 15 15 15 15 15 15 15 15 14 14 14 14 14 14 14 14 14 14 14 14 14 14 14 14 14
18 18 17 17 17 16 16 16 16 16 16 16 15 15 15 15 15 15 15 15 15 15 15 15 14 14 14 14 14 14 14 14 14 13 14 14 14 13 13 13 14 14 13
18 17 17 17 17 16 16 16 16 16 15 15 15 15 15 15 15 15 15 15 15 15 14 14 14 14 14 14 14 14 13 13 13 13 13 13 13 13 13 13 13 13 13
17 17 17 17 17 16 16 16 16 16 15 15 15 15 15 15 15 15 15 15 15 15 14 14 14 14 14 14 14 13 13 13 13 13 13 13 13 13 13 13 13 13 12
17 17 17 17 17 16 16 16 16 15 15 15 15 15 15 15 15 15 15 15 15 15 14 14 14 14 14 14 14 14 14 13 13 13 13 13 13 13 12 12 12 12 12
17 17 17 17 17 16 16 16 15 15 15 15 15 15 15 15 15 15 15 15 15 15 14 14 14 14 14 14 14 14 15 15 13 13 12 13 13 12 12 12 12 12 12
17 17 17 17 17 16 16 16 16 16 16 16 16 15 15 15 15 15 15 15 15 15 14 14 14 14 14 14 14 14 14 14 14 13 13 12 12 12 12 12 12 12 12
17 17 17 16 16 16 16 16 16 15 16 16 15 15 15 15 15 15 15 15 15 15 14 14 14 14 14 14 14 14 14 14 14 14 13 12 12 12 12 12 11 12 11
17 17 16 16 16 16 16 16 16 16 16 16 15 15 15 15 15 15 15 15 15 15 15 14 14 14 14 14 14 14 14 14 14 14 13 13 12 12 12 11 11 11 11
Wind_Speed
3 4 6 4 5 6 6 8 8 8 8 8 8 8 8 8 7 7 7 7 7 7 7 8 8 8 9 8 8 9 9 9 9 9 8 8 8 8 7 5 3 6 7
4 5 6 5 6 6 6 7 8 8 8 8 8 8 8 7 7 7 8 7 7 7 7 7 7 7 8 8 8 9 9 9 9 8 6 8 8 7 7 6 6 7 7
4 5 6 5 5 6 7 8 8 8 8 8 8 8 8 8 7 7 7 7 7 7 7 7 7 7 7 8 8 9 9 9 8 5 2 5 8 8 7 7 7 7 7
5 5 6 6 5 6 6 7 8 8 8 8 7 7 8 8 7 7 7 7 7 7 7 7 7 8 8 8 9 9 9 8 7 2 3 6 7 9 8 8 7 7 7
5 5 7 5 6 6 6 7 7 8 7 8 7 7 7 8 7 7 8 7 7 7 7 8 8 9 9 10 10 9 9 8 5 3 6 6 7 9 8 8 7 7 7
5 5 7 5 5 5 6 7 7 7 7 7 7 7 7 7 7 7 7 7 7 8 8 8 9 9 10 10 10 10 8 5 3 6 6 6 7 9 8 8 7 7 7
5 5 6 6 5 5 5 6 6 6 6 6 7 7 7 7 7 7 7 7 7 8 8 8 9 10 10 11 10 10 8 4 5 6 6 7 9 9 8 8 8 8 8
5 4 6 7 5 5 5 6 6 6 5 6 6 7 7 7 7 7 7 7 7 7 8 9 9 10 10 11 10 10 7 4 6 7 7 8 9 9 9 9 9 9 8
4 3 4 5 6 6 5 5 6 6 5 6 6 7 7 7 7 7 7 7 7 8 9 10 10 11 11 11 11 10 9 6 6 7 8 9 10 9 9 9 9 9 9
3 3 3 4 4 4 6 6 5 6 6 7 8 8 7 7 7 7 8 8 9 10 10 11 12 12 12 12 11 10 6 4 8 8 8 10 10 9 9 9 9 9 10
3 3 3 3 3 3 4 6 5 6 6 6 8 7 4 5 7 7 11 10 11 11 12 12 12 12 12 12 10 7 4 7 8 8 9 11 10 10 10 10 10 10 10
4 3 3 3 3 3 3 4 4 5 5 5 5 5 5 6 7 8 12 12 12 12 12 12 11 9 6 8 8 4 7 8 8 8 10 11 10 11 11 10 10 10 10
3 3 2 2 3 3 3 3 3 4 4 5 5 5 5 5 6 6 7 9 9 8 9 9 7 8 8 8 7 8 8 8 8 10 12 12 11 11 11 11 11 11 11
3 3 2 2 3 3 3 3 3 3 3 3 4 5 4 4 4 5 5 6 6 6 6 6 6 8 9 9 9 9 9 8 8 9 13 15 13 12 12 12 11 12 12
3 2 2 2 2 3 3 2 3 3 3 4 4 4 5 4 4 5 5 5 5 6 6 6 7 8 8 9 9 9 9 10 10 9 10 16 15 15 13 12 13 13 13
3 3 3 3 3 3 3 2 3 3 3 3 4 4 4 4 4 4 4 4 5 6 6 6 8 7 7 7 9 9 9 10 10 9 9 12 16 16 16 14 14 14 14
3 3 3 3 3 3 2 2 2 3 3 3 3 4 4 4 4 4 3 4 5 6 7 7 8 7 7 7 8 9 9 10 10 10 9 9 10 15 17 17 16 15 15
3 3 4 4 3 3 3 2 2 3 3 3 4 3 3 4 4 4 3 4 5 6 6 5 5 6 6 6 6 6 7 8 10 10 10 10 9 10 14 18 18 18 17
3 4 4 4 4 3 3 3 2 3 3 3 3 3 3 3 4 4 3 4 5 5 5 5 5 5 6 6 6 6 6 7 7 8 9 10 10 10 10 13 15 18 17
3 3 4 4 4 4 3 3 3 2 2 3 3 3 3 3 4 4 4 5 5 5 4 5 6 6 5 5 6 7 6 6 6 6 7 8 9 10 10 9 9 13 16
3 3 4 5 5 4 3 3 3 3 3 3 2 3 4 4 4 4 4 4 4 4 5 6 6 7 5 5 6 6 6 6 6 5 6 6 8 8 9 9 9 8 10
3 3 4 5 5 5 4 3 3 3 3 3 3 3 3 4 4 4 4 4 5 5 6 6 6 4 4 3 2 3 3 4 4 4 4 4 5 6 7 8 9 9 9
3 3 3 5 5 5 5 3 3 4 3 3 3 3 3 4 4 4 5 5 5 5 5 6 6 5 4 3 1 0 1 2 3 3 4 4 4 4 6 7 8 9 9
2 3 4 5 4 4 5 5 6 5 4 4 3 4 4 4 4 4 5 5 5 4 5 6 5 4 4 3 2 0 1 2 1 2 3 4 4 5 5 5 7 8 9
1 1 3 3 4 4 5 6 6 5 5 4 4 4 4 4 4 4 5 5 5 4 5 5 5 4 4 3 2 2 2 1 1 2 3 3 3 4 4 5 5 6 7
1 2 2 3 4 4 5 6 7 6 6 5 5 5 5 4 4 5 5 5 5 4 5 5 5 5 4 3 3 3 3 2 2 2 3 4 3 4 4 4 4 5 6
Wind_Direction
82 85 86 83 83 82 86 91 96 98 98 97 94 96 97 96 95 98 100 100 96 95 96 94 93 96 97 97 94 90 86 85 86 88 88 86 88 90 87 85 86 93 87
83 95 97 91 91 88 91 96 98 97 96 96 94 94 94 95 96 96 97 95 94 92 91 93 93 95 96 98 95 90 85 82 82 84 92 97 88 81 78 70 52 68 76
94 101 109 92 88 90 95 99 99 96 93 95 97 97 94 91 94 94 93 94 92 88 88 90 97 99 98 99 95 90 84 80 80 81 106 97 96 85 76 72 73 75 70
93 95 91 89 89 89 96 99 97 93 93 92 94 98 98 94 93 94 92 92 93 92 91 91 98 100 97 96 93 89 87 84 81 85 78 72 81 80 70 69 70 73 70
96 94 89 90 90 88 92 96 96 92 91 91 91 93 95 94 91 91 92 91 90 90 90 91 95 98 97 95 92 87 86 88 92 79 69 68 73 76 70 67 66 64 62
99 95 93 90 94 93 93 97 98 97 93 90 89 89 92 93 91 90 92 93 90 89 92 95 96 97 96 94 90 85 82 85 104 74 66 63 71 77 70 64 63 61 59
94 93 98 95 97 97 95 96 97 96 96 92 89 87 88 89 85 89 92 93 91 90 92 99 97 97 97 95 91 85 81 69 75 76 69 66 67 71 68 63 63 64 62
95 96 102 111 96 90 93 94 94 92 96 95 90 86 84 84 85 87 88 92 93 91 95 102 100 99 96 95 91 85 71 38 83 74 71 67 67 70 67 65 65 63 57
97 98 101 111 119 119 107 100 95 92 94 94 92 88 82 82 85 88 89 90 92 93 97 100 98 96 94 92 90 86 78 50 69 70 70 67 68 68 64 65 64 59 55
107 104 98 96 100 111 116 106 97 96 96 96 94 89 90 101 102 101 102 91 89 93 97 98 95 95 92 89 87 86 85 80 67 69 66 70 67 66 65 65 63 61 57
117 107 102 95 97 100 102 118 122 119 111 121 114 110 126 104 97 102 88 90 90 91 94 95 95 96 96 92 86 86 83 72 69 62 61 66 67 68 67 64 63 62 58
128 117 110 105 107 109 109 121 121 116 119 111 103 108 101 87 83 91 99 96 96 95 96 95 100 108 104 96 97 93 73 70 66 65 62 62 65 66 66 63 63 62 60
132 130 122 110 105 107 109 100 105 111 112 109 106 110 107 101 103 101 106 110 107 111 103 106 109 90 84 76 73 74 65 64 63 60 59 59 63 66 65 63 63 62 62
143 133 126 123 111 106 108 104 114 114 112 106 111 105 110 104 104 102 102 101 105 102 100 98 93 90 83 82 76 72 69 64 64 63 57 56 58 62 63 63 63 64 63
153 154 138 142 118 116 117 117 113 103 105 114 116 121 112 109 108 111 106 104 105 108 111 102 94 89 83 78 74 71 69 66 68 68 66 59 56 56 59 62 64 65 64
176 163 152 154 143 148 141 131 106 101 111 113 117 122 116 111 111 108 109 110 105 106 104 105 100 94 88 81 77 73 68 68 65 66 69 70 62 56 55 57 61 63 63
183 174 159 165 163 161 142 123 120 124 123 116 116 124 117 112 111 114 114 116 113 115 115 106 100 101 96 91 84 77 70 64 64 63 63 62 69 66 58 55 56 59 61
181 178 168 172 175 168 155 156 146 135 129 125 123 123 128 126 118 115 122 117 121 123 120 113 109 105 99 93 86 80 75 69 63 62 63 63 58 62 67 59 56 55 56
181 184 175 172 174 167 161 156 148 139 136 132 128 127 132 125 128 130 130 132 129 129 129 126 118 113 106 99 90 81 73 67 63 61 63 62 62 60 65 72 65 57 53
181 193 181 175 179 163 165 165 157 160 150 140 140 142 140 142 146 137 140 145 137 138 140 134 123 114 108 105 96 88 76 70 66 60 59 62 61 60 57 58 66 67 59
180 192 185 183 179 171 170 184 177 177 175 163 151 150 161 156 150 140 146 143 146 150 151 146 134 127 121 119 114 105 93 76 68 67 62 63 66 62 61 58 55 57 67
192 199 191 192 187 181 184 193 187 182 177 169 164 158 166 159 148 148 156 153 156 154 156 154 149 142 138 148 143 137 128 111 78 66 67 64 63 68 64 62 61 57 54
212 213 208 198 194 192 187 186 178 165 164 167 173 167 166 164 159 161 161 161 164 168 165 170 169 164 162 167 199 208 152 115 111 93 71 73 68 66 69 65 63 61 60
227 216 211 200 199 194 192 193 186 185 186 187 180 171 169 164 166 172 173 174 177 179 176 182 182 182 185 180 161 8 24 107 162 133 109 87 76 68 67 70 64 61 60
215 204 213 198 196 190 196 195 197 193 193 180 173 169 169 161 169 174 174 176 182 185 185 186 187 196 199 209 192 160 137 148 214 163 144 128 103 82 71 68 70 65 63
195 190 201 198 193 188 193 199 199 196 195 187 180 174 173 170 178 176 175 178 182 186 185 189 191 196 204 207 215 208 194 188 187 171 161 152 124 99 84 72 73 74 71
Height
1535 1534 1532 1532 1532 1533 1533 1533 1533 1533 1533 1533 1533 1533 1533 1533 1534 1534 1534 1534 1534 1534 1535 1535 1535 1535 1535 1535 1535 1535 1535 1535 1534 1534 1534 1534 1534 1534 1534 1534 1534 1535 1534
1535 1535 1533 1533 1533 1533 1534 1534 1534 1534 1534 1534 1534 1534 1534 1534 1535 1535 1535 1535 1535 1535 1536 1536 1536 1536 1536 1536 1536 1536 1536 1536 1536 1535 1535 1535 1535 1535 1535 1535 1535 1535 1534
1536 1535 1535 1534 1534 1534 1534 1535 1535 1535 1535 1535 1535 1535 1535 1535 1536 1536 1536 1536 1536 1536 1536 1536 1537 1537 1537 1537 1537 1537 1537 1537 1537 1537 1537 1538 1537 1536 1536 1536 1535 1535 1535
1537 1536 1536 1535 1535 1535 1535 1536 1536 1536 1536 1536 1536 1536 1536 1536 1536 1536 1537 1537 1537 1537 1537 1537 1538 1538 1538 1538 1538 1538 1538 1538 1538 1538 1539 1539 1538 1537 1537 1537 1536 1536 1536
1538 1537 1536 1536 1536 1536 1536 1536 1536 1537 1537 1537 1537 1537 1537 1537 1537 1537 1537 1538 1538 1538 1538 1538 1538 1539 1539 1539 1539 1539 1539 1539 1539 1539 1539 1539 1539 1538 1537 1537 1537 1536 1536
1539 1538 1537 1536 1537 1537 1537 1537 1537 1537 1538 1538 1538 1538 1538 1538 1538 1538 1538 1538 1539 1538 1539 1539 1539 1540 1540 1540 1540 1540 1540 1540 1540 1541 1540 1540 1540 1539 1538 1538 1537 1537 1536
1540 1539 1539 1538 1538 1538 1538 1538 1538 1538 1539 1539 1539 1539 1539 1539 1539 1539 1539 1539 1539 1540 1540 1540 1541 1541 1541 1541 1540 1540 1541 1541 1542 1541 1541 1541 1540 1539 1539 1538 1538 1537 1537
1540 1540 1540 1539 1539 1539 1539 1539 1539 1539 1539 1540 1540 1540 1540 1540 1540 1540 1540 1540 1541 1541 1541 1541 1542 1542 1542 1542 1542 1542 1542 1542 1543 1543 1542 1542 1541 1540 1540 1539 1538 1538 1537
1541 1541 1541 1541 1540 1540 1540 1540 1540 1540 1540 1541 1541 1541 1541 1541 1541 1541 1541 1541 1542 1542 1542 1542 1543 1543 1543 1543 1543 1543 1543 1543 1544 1544 1544 1543 1542 1541 1540 1540 1539 1539 1538
1542 1542 1542 1542 1542 1542 1542 1541 1541 1541 1541 1541 1542 1542 1542 1542 1542 1543 1543 1542 1543 1543 1543 1544 1544 1544 1544 1544 1544 1544 1544 1545 1545 1545 1545 1544 1543 1542 1541 1541 1540 1539 1539
1543 1543 1543 1543 1543 1543 1543 1542 1542 1542 1542 1542 1543 1543 1544 1545 1545 1544 1544 1544 1544 1544 1545 1545 1546 1546 1546 1546 1546 1546 1546 1547 1546 1546 1545 1544 1544 1543 1542 1542 1541 1540 1540
1544 1544 1544 1544 1544 1544 1543 1543 1543 1544 1543 1544 1544 1544 1545 1546 1546 1546 1545 1545 1546 1546 1546 1547 1547 1547 1548 1548 1548 1547 1548 1548 1548 1547 1546 1545 1545 1544 1544 1543 1542 1541 1541
1544 1544 1544 1544 1544 1544 1544 1544 1544 1544 1544 1545 1545 1545 1546 1546 1547 1547 1547 1548 1548 1548 1549 1548 1549 1550 1550 1549 1549 1549 1549 1549 1549 1548 1547 1547 1546 1545 1545 1544 1543 1542 1542
1545 1545 1545 1545 1545 1545 1545 1545 1545 1545 1545 1546 1546 1547 1547 1547 1548 1548 1549 1549 1550 1550 1550 1551 1551 1551 1551 1551 1551 1551 1551 1550 1550 1549 1548 1548 1547 1547 1546 1545 1544 1544 1543
1544 1545 1545 1545 1545 1545 1545 1545 1546 1546 1546 1547 1547 1548 1548 1549 1549 1549 1550 1550 1551 1551 1552 1552 1552 1552 1552 1552 1552 1552 1552 1551 1551 1550 1550 1549 1549 1548 1547 1547 1546 1545 1544
1544 1545 1545 1545 1545 1546 1546 1546 1547 1547 1547 1548 1548 1548 1549 1550 1550 1550 1551 1551 1552 1552 1552 1553 1553 1553 1553 1554 1554 1553 1553 1553 1553 1552 1552 1551 1550 1550 1549 1548 1547 1547 1546
1544 1545 1545 1545 1545 1546 1546 1546 1547 1547 1548 1548 1549 1549 1550 1550 1551 1551 1552 1552 1552 1553 1554 1554 1554 1554 1555 1555 1555 1555 1555 1555 1554 1554 1553 1553 1552 1551 1551 1550 1549 1548 1548
1544 1544 1544 1545 1545 1546 1546 1546 1547 1548 1548 1549 1549 1550 1550 1551 1551 1551 1552 1552 1553 1554 1554 1555 1555 1556 1556 1557 1557 1557 1557 1556 1556 1555 1555 1555 1554 1554 1553 1552 1551 1550 1549
1543 1543 1544 1544 1545 1545 1546 1547 1547 1548 1549 1549 1550 1550 1550 1551 1551 1552 1552 1553 1554 1554 1555 1556 1557 1557 1558 1558 1558 1558 1558 1558 1558 1557 1557 1556 1556 1555 1555 1554 1553 1552 1551
1541 1542 1543 1544 1544 1545 1545 1546 1547 1548 1549 1549 1550 1550 1551 1551 1551 1552 1553 1553 1554 1555 1556 1557 1557 1558 1558 1559 1559 1559 1560 1560 1559 1559 1559 1558 1558 1557 1557 1556 1555 1554 1553
1540 1541 1542 1543 1544 1544 1545 1546 1547 1547 1548 1549 1550 1550 1550 1551 1551 1552 1553 1554 1554 1555 1556 1558 1558 1559 1559 1560 1561 1561 1562 1561 1561 1561 1560 1560 1559 1559 1558 1558 1557 1556 1555
1539 1540 1541 1542 1542 1543 1544 1545 1546 1547 1548 1549 1549 1550 1550 1551 1552 1552 1553 1554 1555 1556 1557 1558 1558 1559 1560 1561 1562 1562 1563 1564 1563 1562 1562 1561 1561 1561 1560 1560 1559 1558 1557
1538 1538 1539 1540 1541 1542 1543 1544 1545 1546 1547 1548 1549 1549 1550 1550 1551 1552 1553 1554 1555 1556 1557 1558 1559 1559 1560 1561 1562 1563 1563 1563 1564 1564 1563 1563 1562 1562 1562 1561 1561 1560 1559
1537 1537 1538 1539 1540 1541 1541 1542 1543 1544 1545 1547 1548 1549 1549 1550 1551 1552 1553 1554 1555 1556 1557 1558 1558 1559 1560 1561 1561 1562 1563 1563 1563 1564 1565 1564 1563 1563 1563 1563 1562 1562 1561
1535 1536 1537 1538 1538 1539 1539 1540 1542 1543 1544 1546 1546 1548 1549 1550 1550 1551 1552 1553 1554 1555 1556 1557 1558 1559 1560 1561 1561 1561 1561 1562 1563 1563 1564 1565 1565 1564 1564 1564 1563 1563 1562
1534 1535 1535 1536 1537 1537 1538 1539 1540 1542 1543 1544 1545 1546 1547 1549 1550 1550 1551 1552 1553 1555 1556 1556 1557 1558 1559 1560 1561 1561 1561 1562 1562 1563 1563 1564 1565 1565 1565 1564 1564 1564 1563